Regional Weather Roundup
Issued by NWS

Home | Current Version | Previous Version | Graphics & Text | Print | Product List | Glossary On
Versions: 1 2 3 4 5 6 7 8 9 10 11 12 13 14 15 16 17 18 19 20 21 22 23 24 25 26 27 28 29 30 31 32 33 34 35 36 37 38 39 40 41 42 43 44 45 46 47 48 49 50
000
ASUS43 KIND 302209
RWRIN

WEATHER ROUNDUP FOR INDIANA
NATIONAL WEATHER SERVICE INDIANAPOLIS IN
600 PM EDT TUE SEP 30 2014

NOTE: "FAIR" INDICATES FEW OR NO CLOUDS BELOW 12,000 FEET WITH NO
SIGNIFICANT WEATHER AND/OR OBSTRUCTIONS TO VISIBILITY.

* - STATION DOES NOT REPORT WEATHER SUCH AS PRECIPITATION OR FOG.

+ - STATION NOT QUALITY CONTROLLED BY THE NATIONAL WEATHER SERVICE.
    USE DATA WITH CAUTION...ESPECIALLY DEWPOINT AND RELATIVE
    HUMIDITY OBSERVATIONS.

INZ001>003-010>013-019-020-302300-
NORTHWEST INDIANA

CITY           SKY/WX    TMP DP  RH WIND       PRES   REMARKS
GARY /AIRPORT/ CLOUDY    57  48  72 N6        30.01F
KNOX *+        CLOUDY    56  46  69 NE8       29.99S
LA PORTE +     CLOUDY    56  47  72 CALM      30.01S
MICHIGAN CITY+ CLOUDY    54  43  66 NE5       30.01S
MONTICELLO +   SUNNY     64  49  58 N7        29.96R
RENSSELAER +   SUNNY     59  50  72 N10       29.98S
VALPARAISO     CLOUDY    55  46  71 VRB5      30.00S

$$

LMZ046-743>745-302300-
SOUTHERN LAKE MICHIGAN

STATION/POSITION TIME  TEMP WIND        PRES
                       AIR  DIR/SP/G
                 (UTC) (F)  (DEG/KT/KT) (MB)
MICHIGAN CITY    2200   54  360/ 14/ 16   N/A

$$

INZ004-005-014>016-021>024-302300-
NORTH CENTRAL INDIANA

CITY           SKY/WX    TMP DP  RH WIND       PRES   REMARKS
ELKHART        CLOUDY    54  45  71 NE6       30.01R
LOGANSPORT +   SUNNY     61  45  55 N9        29.97S
PERU/GRISSOM   SUNNY     64  52  64 NW10      29.96R
ROCHESTER +    SUNNY     63  48  59 N8        29.98S
SOUTH BEND     CLOUDY    55  45  67 VRB6      30.01
WARSAW +       CLOUDY    54  45  71 NE8       30.00R

$$

INZ006>009-017-018-025>027-302300-
NORTHEAST INDIANA

CITY           SKY/WX    TMP DP  RH WIND       PRES   REMARKS
ANGOLA *+      CLOUDY    54  46  76 CALM      29.98F
AUBURN +       MOSUNNY   55  46  71 N5        29.99S
FORT WAYNE     CLOUDY    56  47  71 N7        29.99S
HUNTINGTON +   CLOUDY    55  47  74 NE7       29.99R

$$

INZ028-029-035-036-043>045-051>053-302300-
WEST CENTRAL INDIANA

CITY           SKY/WX    TMP DP  RH WIND       PRES   REMARKS
GREENCASTLE +  CLOUDY    68  54  60 N8        29.94S
LAFAYETTE      SUNNY     64  48  56 N12       29.95S
TERRE HAUTE    MOSUNNY   73  56  54 NW6       29.92S

$$

INZ030>032-037>040-046>048-054>057-064-065-302300-
CENTRAL INDIANA

CITY           SKY/WX    TMP DP  RH WIND       PRES   REMARKS
CP ATTERBURY + PTSUNNY   72  55  56 N6        29.92S
FRANKFORT +    SUNNY     68  49  49 N8        29.96S
INDIANAPOLIS   PTSUNNY   67  52  58 N8        29.93S
-EAGLE CREEK   MOSUNNY   68  50  52 N3        29.93S
KOKOMO *+      SUNNY     66  48  52 N10       29.96R
MARION +       SUNNY     61  47  58 NE10      29.97R
MT COMFORT *+  MOSUNNY   70  39  32 N8        29.94S
SHELBYVILLE    SUNNY     71  54  54 N8        29.92S
ZIONSVILLE +   SUNNY     67  45  44 N5        29.95R

$$

INZ033-034-041-042-049-050-058-059-302300-
EAST CENTRAL INDIANA

CITY           SKY/WX    TMP DP  RH WIND       PRES   REMARKS
MUNCIE         SUNNY     65  48  54 NE8       29.96R

$$

INZ060-061-067>069-081>083-085>088-302300-
SOUTHWEST INDIANA

CITY           SKY/WX    TMP DP  RH WIND       PRES   REMARKS
EVANSVILLE     SUNNY     84  56  38 NW3       29.88F
WASHINGTON +   SUNNY     77  61  57 N6        29.90S

$$

INZ062-063-066-070>080-084-089>092-302300-
SOUTH CENTRAL AND SOUTHEAST INDIANA

CITY           SKY/WX    TMP DP  RH WIND       PRES   REMARKS
BLOOMINGTON    MOSUNNY   74  58  57 N6        29.92S
SEYMOUR +      SUNNY     77  59  53 N9        29.90

$$




USA.gov is the U.S. government's official web portal to all federal, state and local government web resources and services.